Tracking 18850 objects as of 22-Nov-2017
HD Live streaming from Space Station
objects crossing your sky now

COSMOS 942

Track COSMOS 942 now!
10-day predictions
COSMOS 942 is classified as:


NORAD ID: 10288
Int'l Code: 1977-079D
Perigee: 1,469.7 km
Apogee: 1,539.0 km
Inclination: 74.0 °
Period: 115.9 minutes
Semi major axis: 7875 km
RCS: 0.7109 m2 (medium)
Launch date: August 24, 1977
Source: Commonwealth of Independent States (former USSR) (CIS)
Launch site: PLESETSK MISSILE AND SPACE COMPLEX (PKMTR)
aabbcc
Your satellite tracking list
Your tracking list is empty




NASA's NSSDC Master Catalog

Two Line Element Set (TLE):
1 10288U 77079D   17326.63202955 -.00000023 +00000-0 -58092-4 0  9995
2 10288 074.0250 081.7633 0044007 103.7723 000.6373 12.42214918807823
Source of the keplerian elements: AFSPC